SCD 2

Last updated on Thu Oct 30 2025 00:02:30 GMT+0000 (Coordinated Universal Time)

1 25504U 98060A 25301.68267075 .00000617 00000+0 12139-3 0 9993 2 25504 24.9954 59.7066 0016678 196.1396 295.9818 14.45385715426790
UTC large
Height (km)
Speed (km/s)
/
Latitude / Longitude
Inclination (degrees)
Orbital Period (minutes)
Azimuth
Elevation
Range (km)
Doppler Factor

Next 0 passes for location: London (51.5072 / 0.1276)

Sorry there are no passes over London.